Location: Shepherdstown, WV
(39.4326°N, 77.8042°W)
Time: 04:12:32
(UTC-04:00)

Vanguard 3 - Pass Details

Date: 09 August 2021
Orbit: 510 x 3260 km, 33.3° (Epoch: 21 September)

Event Time Altitude Azimuth Distance (km) Brightness Sun altitude
Rises 16:58:20 0° 243° (WSW) 4,176 11.7 36.4°
Reaches altitude 10° 17:00:42 10° 239° (WSW) 3,488 11.5 35.9°
Maximum altitude 17:09:57 60° 162° (SSE) 2,288 9.8 34.2°
Drops below altitude 10° 17:25:56 10° 89° (E) 5,768 11.0 31.1°
Sets 17:31:08 0° 87° (E) 7,028 11.4 30.1°
